Date,TemperatureHighF,TemperatureAvgF,TemperatureLowF,DewpointHighF,DewpointAvgF,DewpointLowF,HumidityHigh,HumidityAvg,HumidityLow,PressureMaxIn,PressureMinIn,WindSpeedMaxMPH,WindSpeedAvgMPH,GustSpeedMaxMPH,PrecipitationSumIn
2013-1-1,43,39,38,36,32,28,86,76,64,29.94,29.90,2,0,2,0.00
2013-1-2,40,31,25,23,20,17,83,64,49,30.18,30.01,13,1,13,0.00
2013-1-3,37,29,23,22,21,18,90,72,54,30.20,30.10,4,0,5,0.00
2013-1-4,44,32,20,28,23,18,94,72,47,30.16,30.05,10,0,10,0.00
2013-1-5,37,29,26,26,22,20,82,75,64,30.30,30.09,6,0,6,0.00
2013-1-6,53,45,32,35,33,30,93,63,46,30.09,29.96,10,1,10,0.00
2013-1-7,48,40,27,33,30,25,92,69,49,30.38,30.07,14,1,14,0.00
2013-1-8,55,40,25,39,33,24,95,77,52,30.38,30.30,12,1,12,0.00
2013-1-10,44,39,36,34,33,32,83,77,67,30.46,30.44,0,0,0,0.00
2013-1-11,45,40,30,44,37,28,98,91,78,30.44,30.04,9,0,9,0.00
2013-1-12,54,46,42,49,44,42,99,96,84,30.11,30.04,5,0,7,0.00
2013-1-13,58,47,42,58,47,41,100,99,98,30.09,29.92,11,1,11,0.00
2013-1-14,61,56,41,61,52,37,100,89,66,30.22,29.89,11,2,15,0.05
2013-1-15,41,40,39,40,39,37,98,96,91,30.27,30.15,14,2,14,0.36
2013-1-20,46,41,38,20,17,16,43,39,34,30.01,29.93,10,2,10,0.00
2013-1-21,44,36,27,35,24,16,81,62,42,30.05,29.73,15,3,26,0.00
2013-1-22,31,22,17,16,5,0,56,46,35,30.23,29.85,19,3,19,0.00
2013-1-23,26,20,9,13,6,3,83,55,38,30.29,30.10,12,1,12,0.00
2013-1-24,28,20,10,18,11,4,91,70,41,30.47,30.02,21,2,21,0.07
2013-1-25,24,18,8,19,11,4,92,76,47,30.46,30.02,12,1,12,0.00
2013-1-26,36,28,21,24,21,19,90,77,59,30.38,30.03,13,1,13,0.02
2013-1-27,38,28,20,25,22,18,92,78,54,30.54,30.38,8,0,8,0.01
2013-1-28,47,37,29,44,34,25,96,89,80,30.46,29.99,14,1,14,0.10
2013-1-29,69,54,40,55,48,38,97,82,61,30.07,29.94,13,1,13,0.00
2013-1-30,71,64,56,63,60,52,92,84,76,29.94,29.21,28,6,28,0.04
2013-1-31,66,46,29,62,33,16,96,61,33,29.87,29.07,23,4,23,0.66
2013-2-1,33,28,20,29,16,7,92,62,45,30.33,29.74,21,2,21,0.03
2013-2-2,33,25,15,26,15,7,92,66,43,30.33,29.95,15,1,15,0.01
2013-2-3,35,28,20,30,26,19,96,89,71,29.95,29.78,8,0,8,0.01
2013-2-4,31,27,21,23,16,13,79,65,58,30.06,29.88,13,2,13,0.00
2013-2-9,40,34,25,24,21,19,84,61,46,30.33,29.99,22,3,22,0.00
2013-2-10,44,32,19,33,22,16,92,68,37,30.43,30.20,13,2,13,0.00
2013-2-11,40,39,38,37,35,33,94,87,80,30.20,30.09,12,2,13,0.03
2013-2-12,58,47,39,35,33,31,82,59,38,29.90,29.79,8,1,9,0.00
2013-2-13,45,39,34,38,33,30,96,80,65,29.90,29.59,14,2,14,0.19
2013-2-14,50,38,30,37,32,29,98,81,46,29.97,29.70,11,1,11,0.01
2013-2-15,62,44,30,40,35,29,96,75,37,29.98,29.83,15,2,15,0.02
2013-2-16,37,35,35,35,34,33,97,95,91,29.97,29.89,6,0,6,0.09
2013-2-18,42,34,19,23,16,11,72,50,32,30.33,30.13,10,1,10,0.02
2013-2-19,45,40,34,44,34,23,97,80,59,30.13,29.67,11,2,22,0.12
2013-2-20,41,34,26,32,20,12,91,59,44,30.09,29.78,18,3,18,0.00
2013-2-21,39,30,22,21,17,12,70,57,45,30.26,30.06,19,2,19,0.00
2013-2-22,34,32,28,32,25,19,94,77,61,30.33,30.15,12,1,12,0.01
2013-2-23,45,37,33,44,36,32,98,97,94,30.15,29.75,8,0,8,0.12
2013-2-24,48,37,33,29,24,22,65,61,49,30.04,29.85,19,4,19,0.03
2013-2-25,46,35,25,30,25,21,92,68,48,30.17,30.04,12,1,12,0.00
2013-2-26,47,37,26,47,35,23,98,92,79,30.16,29.52,24,3,24,0.58
2013-2-27,58,49,42,47,43,36,99,82,58,29.64,29.42,11,1,11,0.01
2013-2-28,50,44,38,40,34,28,97,71,44,29.67,29.56,12,1,12,0.06
2013-3-1,46,42,37,34,31,28,81,66,54,29.81,29.65,12,1,12,0.00
2013-3-2,38,35,28,29,25,22,78,67,57,29.82,29.75,12,1,12,0.00
2013-3-3,41,34,26,25,22,20,83,65,48,29.84,29.72,23,2,23,0.00
2013-3-4,43,34,26,24,21,18,81,58,44,29.97,29.84,19,2,19,0.00
2013-3-5,46,35,22,34,25,19,90,68,43,30.03,29.76,16,2,16,0.00
2013-3-6,38,36,33,37,35,31,97,95,86,29.76,29.46,32,7,32,1.29
2013-3-7,47,43,37,32,30,28,76,62,49,30.07,30.01,14,2,14,0.00
2013-3-8,49,40,33,32,29,26,81,65,47,30.08,30.03,26,4,26,0.00
2013-3-10,59,52,41,40,30,21,91,48,25,30.27,30.18,15,3,15,0.00
2013-3-11,59,50,41,51,46,39,97,85,72,30.20,29.92,16,3,16,0.00
2013-3-12,60,54,42,58,49,34,98,83,66,29.92,29.63,20,4,20,0.61
2013-3-13,51,39,29,37,31,27,94,76,50,29.92,29.88,9,1,9,0.00
2013-3-14,42,35,31,23,21,18,67,57,44,30.06,29.99,16,3,20,0.00
2013-3-15,56,50,39,34,30,23,77,48,32,30.00,29.73,19,2,19,0.00
2013-3-16,56,46,35,46,38,31,89,76,58,29.85,29.57,16,3,16,0.00
2013-3-17,42,37,32,35,32,29,94,83,69,30.21,29.83,10,1,10,0.01
2013-3-18,38,35,32,32,28,24,94,76,63,30.27,30.19,13,2,13,0.02
2013-3-22,39,34,29,23,22,20,70,61,49,29.94,29.89,4,0,4,0.00
2013-3-23,54,39,24,30,25,20,88,61,37,29.97,29.84,14,1,14,0.00
2013-3-24,41,38,33,33,29,26,95,74,57,29.73,29.59,9,1,9,0.03
2013-3-25,37,34,32,36,33,31,97,96,93,29.63,29.44,12,1,12,0.56
2013-3-26,49,39,29,39,32,28,98,80,53,29.91,29.63,12,1,12,0.01
2013-3-27,53,43,34,35,32,29,87,66,42,30.00,29.91,19,2,19,0.00
2013-4-3,53,46,29,26,20,15,71,36,27,30.32,30.12,18,4,21,0.00
2013-4-4,49,38,24,36,24,18,94,61,36,30.36,30.05,14,2,14,0.11
2013-4-5,39,38,37,38,37,36,97,96,94,30.05,29.87,9,1,9,0.67
2013-4-7,66,65,63,45,44,42,52,46,44,30.07,30.02,18,6,18,0.00
2013-4-8,68,67,65,55,54,54,67,63,62,29.93,29.92,12,3,12,0.00
2013-4-9,86,73,58,61,57,52,81,57,37,30.01,29.87,14,2,14,0.00
2013-4-10,91,78,61,64,59,55,83,55,34,29.91,29.72,19,2,19,0.00
2013-4-11,86,70,53,68,60,52,95,72,49,29.81,29.68,19,3,19,0.00
2013-4-12,74,59,51,70,58,50,100,96,78,29.77,29.50,18,2,18,1.62
2013-4-13,67,55,43,54,47,42,98,75,44,29.88,29.65,14,2,16,0.00
2013-4-14,69,54,39,51,44,38,100,73,38,30.07,29.88,11,1,11,0.00
2013-4-15,61,57,53,52,50,48,92,79,66,30.23,30.06,12,2,14,0.00
2013-4-16,75,63,50,63,56,48,96,80,63,30.25,30.08,15,3,15,0.00
2013-4-17,75,65,58,65,60,57,98,84,67,30.17,30.05,16,2,16,0.00
2013-4-18,74,64,58,66,60,56,98,87,70,30.17,29.96,16,3,16,0.03
2013-4-19,80,69,53,69,64,50,98,85,65,29.96,29.55,24,4,24,0.72
2013-4-20,62,52,45,51,39,32,97,64,34,30.26,29.70,15,1,15,0.33
2013-4-21,52,45,36,36,31,25,83,61,38,30.53,30.26,15,2,15,0.00
2013-4-22,54,46,32,43,39,30,95,77,63,30.52,30.33,16,2,16,0.00
2013-4-23,61,50,42,50,44,41,95,80,62,30.33,30.07,14,2,14,0.00
2013-4-24,76,60,40,61,52,39,99,77,53,30.07,29.75,19,2,19,0.00
2013-4-25,65,54,44,57,41,35,89,61,37,30.23,29.84,15,2,15,0.00
2013-4-26,44,41,38,41,39,37,96,93,88,30.30,30.23,0,0,0,0.00
2013-4-28,68,61,41,49,44,37,98,55,37,30.23,30.10,15,2,15,0.00
2013-4-29,59,56,54,58,54,48,100,96,75,30.11,29.99,15,2,15,0.68
2013-4-30,57,56,54,57,55,52,99,98,94,30.20,30.01,20,1,20,0.24
2013-5-1,67,57,48,53,48,41,98,75,42,30.36,30.20,14,2,14,0.00
2013-5-2,66,54,46,55,49,44,97,83,58,30.38,30.25,13,1,13,0.00
2013-5-3,63,53,43,50,45,41,99,76,50,30.32,30.24,18,2,18,0.00
2013-5-4,66,55,47,51,46,41,91,73,48,30.27,30.13,15,3,15,0.00
2013-5-5,61,52,46,50,45,40,90,77,62,30.19,30.09,14,2,14,0.00
2013-5-6,61,55,50,58,53,47,98,94,89,30.12,29.99,15,2,15,0.00
2013-5-7,64,60,57,63,59,56,99,98,95,30.00,29.85,15,3,15,0.46
2013-5-8,68,60,56,63,58,55,99,95,78,29.94,29.88,9,0,9,0.12
2013-5-9,74,62,52,64,58,52,100,90,63,29.94,29.86,8,0,8,0.01
2013-5-10,84,68,52,68,61,52,100,79,47,29.95,29.81,10,1,10,0.09
2013-5-11,79,69,63,71,65,62,99,88,64,29.87,29.63,13,1,13,0.32
2013-5-12,66,60,48,63,49,34,98,71,38,29.96,29.66,16,1,16,0.07
2013-5-13,60,51,39,42,36,30,93,59,36,30.10,29.95,12,1,12,0.03
2013-5-14,65,51,33,49,39,32,98,68,37,30.15,30.00,12,0,12,0.05
2013-5-15,84,68,54,68,58,46,88,71,55,30.00,29.62,18,1,18,0.02
2013-5-16,86,73,63,70,64,60,95,75,51,29.84,29.68,9,0,9,0.01
2013-5-17,78,68,56,62,55,48,99,68,37,30.08,29.84,12,1,12,0.00
2013-5-18,65,62,59,62,58,55,98,89,74,30.17,30.08,10,1,10,0.08
2013-5-19,75,66,60,70,65,59,100,95,82,30.14,30.03,8,0,8,0.01
2013-5-20,80,71,63,73,68,63,100,91,71,30.06,29.92,9,0,9,0.01
2013-5-21,82,73,67,74,69,66,98,89,71,29.94,29.82,10,1,10,0.00
2013-5-22,84,76,68,76,72,67,99,88,73,29.88,29.78,11,1,11,0.00
2013-5-23,79,73,68,73,70,64,96,89,75,29.85,29.69,13,1,13,0.02
2013-5-24,68,58,50,64,52,37,98,82,59,30.07,29.67,16,2,16,0.04
2013-5-25,66,55,44,46,41,36,78,60,39,30.11,30.00,18,1,18,0.00
2013-5-26,72,57,41,48,44,39,95,65,36,30.15,30.05,10,0,10,0.00
2013-5-27,73,59,42,58,50,41,100,75,41,30.22,30.12,6,0,6,0.00
2013-5-28,84,70,57,73,64,55,98,83,63,30.14,30.00,11,1,11,0.60
2013-5-29,88,75,65,77,70,65,100,84,56,30.06,30.01,9,0,9,0.16
2013-5-30,90,77,66,76,70,65,96,80,57,30.12,30.05,9,0,9,0.00
2013-5-31,89,77,65,74,69,64,99,78,54,30.09,29.97,13,1,13,0.00
2013-6-1,89,78,68,77,70,66,95,78,56,29.99,29.87,13,1,13,0.00
2013-6-2,88,77,69,76,71,67,99,82,64,29.87,29.77,13,1,13,0.42
2013-6-3,79,70,66,73,69,65,100,95,77,29.87,29.74,10,0,10,0.76
2013-6-4,77,65,56,67,56,49,99,75,40,30.06,29.87,11,1,11,0.00
2013-6-5,78,66,51,64,57,51,99,77,51,30.11,30.00,12,1,12,0.00
2013-6-6,75,66,55,67,62,54,99,87,73,30.04,29.80,15,2,15,0.16
2013-6-7,71,69,66,70,69,66,99,99,96,29.80,29.48,12,1,12,1.55
2013-6-8,78,68,64,70,66,64,100,94,68,30.02,29.61,5,0,8,0.02
2013-6-9,81,71,61,73,67,61,100,88,63,30.12,30.02,12,1,12,0.00
2013-6-10,80,74,68,77,72,68,99,94,85,30.03,29.74,15,2,15,1.55
2013-6-11,83,74,67,75,70,66,100,88,64,29.79,29.70,8,0,8,0.00
2013-6-12,88,76,64,77,70,64,99,83,59,29.80,29.72,9,0,9,0.00
2013-6-13,88,74,68,77,70,61,98,87,65,29.74,29.40,12,1,12,0.09
2013-6-14,77,67,60,64,60,55,96,78,54,29.90,29.50,19,2,19,0.02
2013-6-15,83,69,56,67,62,56,99,80,50,30.01,29.90,8,0,8,0.00
2013-6-16,87,73,62,74,68,61,99,85,62,29.96,29.81,13,0,13,0.00
2013-6-17,85,76,69,76,72,68,98,87,67,29.90,29.82,9,0,9,0.00
2013-6-18,76,71,63,74,70,62,100,97,92,29.85,29.72,10,0,10,1.86
2013-6-19,76,68,62,67,64,61,100,89,65,30.10,29.81,11,1,11,0.01
2013-6-20,78,68,58,66,61,57,100,80,53,30.21,30.10,11,1,11,0.00
2013-6-21,80,68,54,70,61,51,100,80,41,30.24,30.17,10,1,10,0.00
2013-6-22,83,72,59,72,66,59,100,83,62,30.19,30.09,12,1,12,0.00
2013-6-23,80,73,66,77,71,65,99,95,87,30.12,30.01,7,0,7,0.63
2013-6-24,90,76,69,80,73,68,100,91,67,30.06,29.96,7,0,7,0.07
2013-6-25,90,78,66,80,73,66,100,87,65,29.98,29.83,14,0,14,0.00
2013-6-26,91,78,68,81,73,66,98,85,66,29.90,29.73,11,0,14,0.00
2013-6-27,84,75,69,78,72,68,99,92,79,29.77,29.56,9,1,13,0.25
2013-6-28,87,75,70,78,73,68,100,92,67,29.57,29.43,12,1,12,0.93
2013-6-29,87,76,67,78,72,67,100,89,61,29.64,29.46,10,0,10,0.00
2013-6-30,86,78,72,79,75,71,100,92,76,29.79,29.63,13,1,13,0.00
2013-7-1,82,76,72,78,74,72,98,94,82,29.94,29.78,14,1,14,0.16
2013-7-2,82,75,71,78,74,71,99,95,84,30.13,29.93,11,1,11,0.30
2013-7-3,86,76,71,80,74,70,100,95,77,30.18,30.10,10,0,11,0.26
2013-7-4,87,79,72,79,75,72,100,89,68,30.20,30.11,12,1,12,0.01
2013-7-5,88,79,72,80,75,71,100,88,68,30.18,30.07,11,1,11,0.00
2013-7-6,91,81,74,81,76,72,100,86,66,30.12,30.01,8,0,10,0.00
2013-7-7,89,79,71,81,75,70,99,87,69,30.05,29.94,15,0,15,0.03
2013-7-8,85,76,70,77,73,70,100,91,71,30.05,29.97,8,0,8,0.03
2013-7-9,87,77,70,79,74,70,100,92,69,30.04,29.93,10,0,10,0.00
2013-7-10,88,78,72,81,76,71,99,93,75,29.95,29.79,12,0,12,0.43
2013-7-11,84,76,72,77,74,71,100,93,72,29.85,29.77,13,0,13,0.02
2013-7-12,74,71,67,73,70,67,100,99,96,29.94,29.81,11,1,11,1.20
2013-7-13,84,75,66,79,73,66,100,93,79,30.20,29.94,8,0,8,0.00
2013-7-14,88,79,71,80,75,71,100,90,70,30.27,30.20,9,0,9,0.00
2013-7-15,92,80,70,82,76,70,100,88,65,30.24,30.11,5,0,6,0.00
2013-7-16,92,82,73,81,76,72,100,85,60,30.16,30.09,9,0,9,0.00
2013-7-17,93,81,71,81,76,71,100,85,56,30.13,30.03,8,0,8,0.00
2013-7-18,95,82,73,85,78,73,100,89,67,30.05,29.93,9,0,9,0.00
2013-7-19,94,84,76,83,79,75,100,87,67,29.94,29.81,7,0,10,0.00
2013-7-20,91,82,77,83,78,76,96,88,72,29.84,29.73,9,0,9,0.00
2013-7-21,91,79,72,80,75,71,99,88,60,29.88,29.81,7,0,8,0.21
2013-7-22,86,78,70,81,75,70,100,92,75,29.86,29.70,8,0,8,0.00
2013-7-23,87,78,70,78,74,69,100,88,67,29.70,29.57,9,0,9,0.00
2013-7-24,84,75,68,75,71,64,100,87,69,29.83,29.60,9,0,9,0.00
2013-7-25,77,70,63,69,64,58,97,81,72,29.96,29.82,13,1,13,0.00
2013-7-26,82,71,62,71,66,62,99,85,61,30.02,29.94,9,0,9,0.00
2013-7-27,83,73,64,75,70,64,100,90,69,30.00,29.87,15,1,15,0.00
2013-7-28,85,75,68,78,72,67,98,91,72,29.91,29.81,7,0,9,0.01
2013-7-29,83,72,62,70,64,59,99,80,46,30.09,29.91,9,0,10,0.01
2013-7-30,82,69,58,69,64,58,100,84,57,30.16,30.08,6,0,7,0.00
2013-7-31,83,71,62,74,68,62,100,90,67,30.09,29.96,10,0,10,0.00
2013-8-1,79,72,69,76,71,68,100,97,87,29.96,29.74,10,0,10,0.56
2013-8-2,85,74,65,74,69,65,100,86,59,29.90,29.78,9,0,9,0.03
2013-8-3,82,71,65,73,69,65,100,92,67,29.91,29.85,7,0,7,0.00
2013-8-4,81,71,59,68,64,58,99,81,54,29.96,29.83,13,0,13,0.00
2013-8-5,78,66,56,65,61,55,99,84,58,30.04,29.95,10,0,10,0.00
2013-8-6,73,68,61,70,66,60,99,94,86,30.02,29.94,10,1,10,0.00
2013-8-7,83,74,68,76,72,67,99,92,76,30.02,29.94,10,1,10,0.00
2013-8-8,85,78,73,79,75,72,96,90,76,29.98,29.92,12,1,12,0.00
2013-8-9,90,80,74,82,77,73,98,89,72,29.92,29.78,18,1,18,0.00
2013-8-10,82,74,66,75,70,63,100,88,61,30.02,29.87,8,0,8,0.00
2013-8-11,82,73,66,77,70,65,100,92,74,30.05,29.95,8,0,8,0.00
2013-8-12,86,76,68,79,73,67,100,91,70,29.96,29.85,8,0,8,0.00
2013-8-13,85,76,70,76,73,69,100,91,66,29.85,29.67,11,0,11,0.00
2013-8-14,73,65,57,70,60,54,99,84,59,30.03,29.73,15,0,15,0.00
2013-8-15,75,63,52,63,57,52,100,83,56,30.12,30.03,6,0,8,0.00
2013-8-16,77,65,52,66,58,52,100,82,49,30.14,30.07,9,0,9,0.00
2013-8-17,77,67,56,67,62,55,100,85,63,30.20,30.12,12,1,12,0.00
2013-8-18,73,67,62,70,65,61,98,94,84,30.16,30.09,10,0,10,0.00
2013-8-19,73,67,61,70,66,61,100,96,88,30.12,30.02,7,0,7,0.00
2013-8-20,84,72,62,75,69,62,100,92,70,30.11,30.02,7,0,7,0.00
2013-8-21,86,76,67,78,72,67,100,90,68,30.14,30.02,10,1,10,0.00
2013-8-22,88,76,69,77,72,69,100,89,60,30.04,29.88,8,0,8,0.01
2013-8-23,77,70,61,73,68,60,100,92,78,30.04,29.86,11,0,11,0.00
2013-8-24,81,68,57,70,63,56,100,86,53,30.27,30.04,12,1,12,0.01
2013-8-25,79,66,56,67,59,53,100,82,43,30.35,30.22,8,0,8,0.00
2013-8-26,84,69,57,72,65,56,100,86,60,30.24,29.95,10,0,10,0.01
2013-8-27,89,76,67,78,72,66,98,88,66,29.95,29.81,8,0,8,0.00
2013-8-28,82,74,70,78,73,69,100,96,82,29.85,29.76,7,0,7,0.00
2013-8-29,83,75,68,76,72,67,100,92,72,29.96,29.76,12,1,12,0.00
2013-8-30,84,73,63,75,69,63,100,90,71,29.98,29.84,10,0,10,0.00
2013-8-31,88,78,70,78,74,69,99,88,69,29.87,29.74,16,1,16,0.00
2013-9-1,88,76,68,78,73,67,100,91,68,29.79,29.70,9,0,9,0.00
2013-9-2,87,74,71,78,73,71,100,97,72,29.74,29.68,5,0,5,0.00
2013-9-7,64,64,64,63,63,63,96,96,96,29.90,29.90,0,0,0,0.00
2013-10-14,65,64,64,58,58,57,80,78,77,30.17,30.17,1,0,7,0.00
2013-10-15,49,49,48,48,48,48,98,98,98,30.16,30.15,0,0,0,0.00
2013-11-1,71,67,59,66,63,58,98,87,77,29.80,29.54,19,4,26,0.00
2013-11-2,71,58,48,61,52,45,100,84,46,29.80,29.57,7,0,12,0.01
2013-11-3,57,46,33,46,38,30,98,77,40,30.36,29.81,12,1,16,0.01
2013-11-4,45,38,30,33,29,26,92,72,49,30.57,30.37,7,1,16,0.31
2013-11-5,58,46,33,49,42,30,95,86,72,30.56,30.43,5,0,8,0.13
2013-11-6,68,57,47,56,52,46,97,83,62,30.43,30.06,7,1,15,0.01
2013-11-7,68,56,45,61,51,34,99,83,58,30.04,29.80,7,1,15,0.01
2013-11-8,51,40,30,35,29,27,92,68,45,30.26,29.98,10,1,16,0.00
2013-11-9,54,41,27,36,31,25,96,70,44,30.31,29.99,9,1,14,0.00
2013-11-10,66,50,37,43,35,30,85,59,35,30.17,29.88,4,1,21,0.00
2013-11-11,57,46,30,38,34,28,93,66,45,30.25,29.98,11,1,13,0.00
2013-11-12,50,42,30,40,28,18,76,59,46,30.33,29.91,11,2,23,0.00
2013-11-13,43,32,26,25,22,20,88,68,43,30.41,30.33,13,1,19,0.00
2013-11-14,58,37,23,30,25,21,94,66,30,30.35,30.18,7,0,10,0.00
2013-11-15,54,43,30,39,32,27,87,67,44,30.24,30.15,6,1,9,0.00
2013-11-16,53,49,44,51,48,41,99,97,89,30.27,30.18,5,0,6,0.11
2013-11-17,67,57,48,60,55,48,100,94,77,30.18,29.74,6,2,15,0.01
2013-11-18,70,60,51,64,47,31,99,68,35,29.86,29.64,9,2,18,0.20
2013-11-19,50,45,37,32,30,28,75,57,47,30.30,29.86,8,2,18,0.00
2013-11-20,44,37,29,33,30,26,92,76,61,30.50,30.31,7,1,12,0.00
2013-11-21,54,40,27,45,36,26,97,89,72,30.50,30.34,4,0,7,0.00
2013-11-22,64,54,42,56,51,41,98,90,73,30.33,29.92,5,0,9,0.01
2013-11-23,55,46,34,55,33,20,98,61,39,30.12,29.94,10,3,23,0.00
2013-11-24,33,28,23,20,11,8,61,49,38,30.46,30.13,18,3,25,0.00
2013-11-25,36,27,17,20,15,12,87,61,40,30.53,30.32,11,1,14,0.00
2013-11-26,59,40,34,58,33,18,99,81,46,30.31,29.48,14,2,24,0.64
2013-11-27,60,39,30,60,37,22,99,92,68,29.96,29.43,12,2,28,0.56
2013-11-28,37,30,25,26,20,18,87,66,46,30.43,29.98,8,1,13,0.39
2013-11-29,43,30,21,27,24,20,95,78,47,30.66,30.41,6,1,12,0.13
2013-11-30,40,30,20,27,24,19,95,81,57,30.65,30.34,5,0,10,0.05
2013-12-1,49,34,22,37,30,21,96,85,58,30.33,29.97,3,0,9,0.01
2013-12-2,50,41,32,42,38,31,97,87,69,29.97,29.82,4,0,8,0.00
2013-12-3,58,44,37,42,39,35,94,82,54,29.94,29.82,6,0,10,0.00
2013-12-4,58,48,38,52,45,36,97,92,79,30.03,29.93,5,0,8,0.00
2013-12-5,67,58,49,63,56,48,99,95,82,30.02,29.89,10,2,21,0.00
2013-12-6,65,53,40,64,52,39,98,97,93,30.09,29.84,10,3,21,0.02
2013-12-7,44,37,28,38,33,25,97,86,67,30.47,30.05,10,2,15,0.39
2013-12-8,33,31,27,32,27,24,97,88,72,30.50,30.24,7,1,10,0.00
2013-12-9,37,34,32,36,33,32,98,98,97,30.21,29.99,3,0,7,0.44
2013-12-10,35,32,26,34,32,26,99,98,96,30.18,29.93,2,0,6,0.00
2013-12-11,41,29,20,30,25,19,98,87,59,30.37,30.18,7,0,11,0.00
2013-12-12,32,26,19,25,18,14,96,74,50,30.39,30.20,5,1,15,0.00
2013-12-13,43,31,20,24,21,17,91,69,41,30.26,30.18,6,0,9,0.00
2013-12-14,42,37,28,42,34,25,100,91,80,30.27,29.66,6,1,9,0.05
2013-12-15,49,38,27,41,34,24,99,84,62,29.90,29.57,8,1,18,0.00
2013-12-16,36,32,26,29,26,24,93,79,67,30.14,29.90,8,1,8,0.00
2013-12-17,41,36,32,36,32,27,95,86,76,30.11,29.87,4,1,9,0.00
2013-12-18,40,34,28,32,28,25,97,83,59,30.14,29.93,7,1,10,0.00
2013-12-19,59,42,23,35,30,22,95,67,39,30.16,30.02,3,1,16,0.00
2013-12-20,60,53,45,53,41,33,85,65,54,30.07,29.95,5,2,15,0.00
2013-12-21,70,62,54,62,55,49,89,78,64,29.98,29.87,9,3,22,0.00
2013-12-22,71,64,59,66,62,58,98,92,83,29.98,29.82,11,4,23,0.00
2013-12-23,64,56,41,63,53,33,100,93,72,30.15,29.88,7,2,19,0.00
2013-12-24,41,35,25,32,24,11,80,65,49,30.40,30.13,7,2,23,0.00
2013-12-25,33,25,20,20,15,12,90,67,49,30.52,30.35,6,1,12,0.00
2013-12-26,44,30,20,28,24,18,95,79,50,30.34,30.17,5,0,10,0.00
2013-12-27,49,32,22,30,25,20,94,76,41,30.38,30.28,8,0,12,0.00
2013-12-28,57,40,27,34,29,24,90,68,39,30.28,30.08,4,0,14,0.00
2013-12-29,52,45,40,51,42,31,99,89,56,30.07,29.48,8,1,16,0.19
2013-12-30,48,39,33,44,34,26,99,85,69,30.13,29.77,7,1,15,0.00
2013-12-31,46,36,28,33,25,19,85,67,49,30.28,30.05,8,1,16,0.00
2014-1-1,47,33,23,33,27,20,95,81,52,30.37,30.09,7,1,14,0.00
2014-1-2,39,33,28,37,32,28,97,95,90,30.08,29.52,5,1,8,0.00